Tracking 31027 objects as of 19-Jul-2025
HD Live streaming from Space Station
objects crossing your sky now

STARLINK-30189

Track STARLINK-30189 now!
10-day predictions
STARLINK-30189 is classified as:


NORAD ID: 57430
Int'l Code: 2023-105A
Perigee: 565.5 km
Apogee: 566.9 km
Inclination: 43.0 °
Period: 95.8 minutes
Semi major axis: 6937 km
RCS: Unknown
Launch date: July 24, 2023
Source: United States (US)
Launch site: AIR FORCE EASTERN TEST RANGE (AFETR)
Your satellite tracking list
STARLINK-5403
Track 1 satellite(s)




NASA's NSSDC Master Catalog

Two Line Element Set (TLE):
1 57430U 23105A   25199.74466683 -.00000418  00000-0 -15864-4 0  9993
2 57430  43.0035  93.3204 0001019 266.4209  93.6517 15.02530099110329
Source of the keplerian elements: AFSPC